New Roads False River Regiona, LA

9:14 PM CST on December 05, 2019 (GMT -0600)
False River

Weather History for KHZR - August, 2019

Change the Weather History Date:

Sunday, August 4, 2019

  Actual Average (KBTR) Record (KBTR)
Temperature  
Mean Temperature 82 °F -  
Max Temperature 91 °F 91 °F 100 °F (1951)
Min Temperature 73 °F 72 °F 63 °F (1926)
Cooling Degree Days 17    
Growing Degree Days 32 (Base 50)    
Moisture  
Dew Point 74 °F    
Average Humidity 81    
Maximum Humidity 100    
Minimum Humidity 49    
Precipitation  
Precipitation 0.16 in - - ()
Sea Level Pressure  
Sea Level Pressure 29.95 in    
Wind  
Wind Speed 2 mph (WSW)    
Max Wind Speed 9 mph    
Max Gust Speed -    
Visibility 9 miles    
Events Rain , Thunderstorm    
Averages and records for this station are not official NWS values.
T = Trace of Precipitation, MM = Missing Value Source: NWS Daily Summary

Daily Weather History Graph

Daily Weather History Graph

Search for Another Location

Airport or City:

Astronomy

Aug. 04, 2019 Rise Set
Actual Time 6:25 AM CDT 7:58 PM CDT
Civil Twilight 5:59 AM CDT 8:24 PM CDT
Nautical Twilight 5:28 AM CDT 8:55 PM CDT
Astronomical Twilight 4:55 AM CDT 9:27 PM CDT
Moon 10:17 AM CDT (8/4) 10:55 PM CDT (8/4)
Length of Visible Light 14h 24m
Length of Day
13h 32m
Waxing Crescent, 18% of the Moon is Illuminated
Aug 4
Waxing Crescent
Aug 7
First Quarter
Aug 15
Full
Aug 23
Last Quarter
Aug 30
New

Hourly Weather History & Observations

Time (CDT) Temp. Heat Index Dew Point Humidity Pressure Visibility Wind Dir Wind Speed Gust Speed Precip Events Conditions
12:16 AM 78.8 °F - 73.4 °F 83% 29.95 in 10.0 mi South 3.5 mph - N/A   Clear
12:36 AM 75.2 °F - 73.4 °F 94% 29.95 in 10.0 mi Calm Calm - N/A   Scattered Clouds
12:55 AM 75.2 °F - 75.2 °F 100% 29.95 in 10.0 mi Calm Calm - N/A   Clear
1:56 AM 75.2 °F - 73.4 °F 94% 29.96 in 10.0 mi Calm Calm - N/A   Scattered Clouds
2:18 AM 75.2 °F - 75.2 °F 100% 29.95 in 10.0 mi Calm Calm - N/A   Scattered Clouds
2:55 AM 75.2 °F - 75.2 °F 100% 29.95 in 10.0 mi Calm Calm - N/A   Scattered Clouds
3:16 AM 75.2 °F - 75.2 °F 100% 29.94 in 10.0 mi Calm Calm - N/A   Mostly Cloudy
3:36 AM 75.2 °F - 75.2 °F 100% 29.95 in 10.0 mi Calm Calm - N/A   Overcast
3:55 AM 75.2 °F - 75.2 °F 100% 29.95 in 7.0 mi Calm Calm - N/A   Mostly Cloudy
4:15 AM 75.2 °F - 73.4 °F 94% 29.95 in 10.0 mi Calm Calm - N/A   Mostly Cloudy
4:56 AM 73.4 °F - 73.4 °F 100% 29.95 in 10.0 mi Calm Calm - N/A   Clear
5:15 AM 73.4 °F - 73.4 °F 100% 29.95 in 10.0 mi Calm Calm - N/A   Scattered Clouds
5:36 AM 73.4 °F - 73.4 °F 100% 29.95 in 10.0 mi Calm Calm - N/A   Clear
6:16 AM 73.4 °F - 73.4 °F 100% 29.97 in 7.0 mi Calm Calm - N/A   Clear
6:36 AM 73.4 °F - 73.4 °F 100% 29.97 in 4.0 mi Calm Calm - N/A   Clear
7:15 AM 73.4 °F - 73.4 °F 100% 29.97 in 3.0 mi Calm Calm - N/A   Clear
7:56 AM 77.0 °F - 77.0 °F 100% 29.98 in 7.0 mi Calm Calm - N/A   Clear
8:36 AM 80.6 °F 87.1 °F 77.0 °F 89% 29.99 in 10.0 mi Calm Calm - N/A   Scattered Clouds
8:56 AM 80.6 °F 87.1 °F 77.0 °F 89% 29.99 in 10.0 mi WSW 3.5 mph - N/A   Mostly Cloudy
9:55 AM 82.4 °F 89.5 °F 75.2 °F 79% 30.00 in 10.0 mi West 4.6 mph - N/A   Scattered Clouds
10:16 AM 84.2 °F 92.3 °F 75.2 °F 74% 30.00 in 10.0 mi Calm Calm - N/A   Clear
10:36 AM 84.2 °F 92.3 °F 75.2 °F 74% 29.99 in 10.0 mi Calm Calm - N/A   Clear
11:15 AM 84.2 °F 90.9 °F 73.4 °F 70% 30.00 in 10.0 mi West 4.6 mph - N/A   Scattered Clouds
11:35 AM 87.8 °F 97.6 °F 75.2 °F 66% 29.99 in 10.0 mi NNW 4.6 mph - N/A   Scattered Clouds
11:55 AM 87.8 °F 97.6 °F 75.2 °F 66% 29.99 in 10.0 mi WNW 4.6 mph - N/A   Scattered Clouds
12:17 PM 87.8 °F 95.6 °F 73.4 °F 62% 29.98 in 10.0 mi WNW 4.6 mph - N/A   Scattered Clouds
12:36 PM 87.8 °F 95.6 °F 73.4 °F 62% 29.98 in 10.0 mi West 4.6 mph - N/A   Scattered Clouds
1:15 PM 87.8 °F 95.6 °F 73.4 °F 62% 29.96 in 10.0 mi West 5.8 mph - N/A   Scattered Clouds
1:35 PM 87.8 °F 95.6 °F 73.4 °F 62% 29.96 in 10.0 mi WNW 3.5 mph - N/A   Clear
1:56 PM 89.6 °F 94.7 °F 69.8 °F 52% 29.95 in 10.0 mi Calm Calm - N/A   Clear
2:16 PM 89.6 °F 98.2 °F 73.4 °F 59% 29.94 in 10.0 mi NW 6.9 mph - N/A   Clear
2:56 PM 89.6 °F 98.2 °F 73.4 °F 59% 29.93 in 10.0 mi NW 4.6 mph - N/A   Scattered Clouds
3:16 PM 89.6 °F 94.7 °F 69.8 °F 52% 29.92 in 10.0 mi NW 5.8 mph - N/A   Scattered Clouds
3:35 PM 89.6 °F 96.2 °F 71.6 °F 55% 29.92 in 10.0 mi NW 3.5 mph - N/A   Scattered Clouds
3:58 PM 91.4 °F 98.4 °F 71.6 °F 52% 29.91 in 10.0 mi West 3.5 mph - N/A Thunderstorm Clear
4:16 PM 91.4 °F 98.4 °F 71.6 °F 52% 29.91 in 10.0 mi NW 5.8 mph - N/A   Clear
4:36 PM 91.4 °F 96.8 °F 69.8 °F 49% 29.90 in 10.0 mi Calm Calm - N/A   Clear
4:56 PM 91.4 °F 96.8 °F 69.8 °F 49% 29.92 in 10.0 mi Calm Calm - N/A   Scattered Clouds
5:15 PM 89.6 °F 94.7 °F 69.8 °F 52% 29.92 in 10.0 mi South 3.5 mph - N/A   Mostly Cloudy
5:37 PM 87.8 °F 97.6 °F 75.2 °F 66% 29.92 in 10.0 mi SSE 6.9 mph - N/A   Mostly Cloudy
5:56 PM 87.8 °F 97.6 °F 75.2 °F 66% 29.92 in 10.0 mi SE 9.2 mph - N/A   Scattered Clouds
6:17 PM 84.2 °F 90.9 °F 73.4 °F 70% 29.93 in 10.0 mi SE 9.2 mph - N/A   Scattered Clouds
6:35 PM 82.4 °F 89.5 °F 75.2 °F 79% 29.93 in 10.0 mi SE 5.8 mph - N/A   Mostly Cloudy
6:56 PM 82.4 °F 90.9 °F 77.0 °F 84% 29.94 in 5.0 mi Calm Calm - 0.01 in Rain , Thunderstorm Heavy Thunderstorms and Rain
7:16 PM 78.8 °F - 75.2 °F 89% 29.94 in 3.0 mi Calm Calm - 0.06 in Rain , Thunderstorm Heavy Thunderstorms and Rain
7:35 PM 77.0 °F - 73.4 °F 89% 29.93 in 3.0 mi Calm Calm - 0.12 in Rain , Thunderstorm Rain
7:57 PM 78.8 °F - 75.2 °F 89% 29.93 in 10.0 mi Calm Calm - 0.15 in   Light Drizzle
8:17 PM 78.8 °F - 77.0 °F 94% 29.94 in 10.0 mi Calm Calm - N/A   Scattered Clouds
8:36 PM 77.0 °F - 75.2 °F 94% 29.93 in 10.0 mi Calm Calm - N/A   Scattered Clouds
9:17 PM 77.0 °F - 75.2 °F 94% 29.95 in 10.0 mi Calm Calm - N/A   Overcast
9:36 PM 77.0 °F - 75.2 °F 94% 29.95 in 10.0 mi Calm Calm - N/A   Mostly Cloudy
9:56 PM 77.0 °F - 75.2 °F 94% 29.96 in 7.0 mi Calm Calm - N/A   Clear
10:16 PM 77.0 °F - 75.2 °F 94% 29.96 in 7.0 mi Calm Calm - N/A   Clear
10:36 PM 77.0 °F - 75.2 °F 94% 29.96 in 7.0 mi Calm Calm - N/A   Clear
10:56 PM 77.0 °F - 75.2 °F 94% 29.96 in 10.0 mi SE 4.6 mph - N/A   Clear
11:16 PM 77.0 °F - 75.2 °F 94% 29.96 in 10.0 mi SE 4.6 mph - N/A   Clear
11:38 PM 77.0 °F - 75.2 °F 94% 29.95 in 10.0 mi SSE 4.6 mph - N/A   Clear
11:55 PM 75.2 °F - 75.2 °F 100% 29.95 in 10.0 mi SSE 3.5 mph - N/A   Clear